RH
88 83 82 78 77 78 77 75 75 74 75 76 74 78 78 79 80 80 80 79 79 78 76 75 76 74 68 68 73 76 76 75 74 72 72 74 75 75 70 72 76 71 74
80 80 82 79 76 74 75 76 75 78 80 74 74 76 78 77 78 78 78 78 77 78 75 73 73 73 73 72 73 75 75 77 76 68 68 70 73 72 71 75 76 74 71
78 78 77 81 75 77 79 78 76 78 76 76 77 73 75 77 77 77 77 77 76 76 74 73 72 72 73 70 72 70 73 74 68 66 71 78 72 71 70 73 75 75 75
79 85 81 83 81 80 79 78 76 76 77 78 78 76 74 76 76 75 76 76 76 76 74 73 72 71 68 67 68 70 72 71 69 72 73 73 67 75 74 70 71 75 76
82 88 81 82 82 77 78 76 76 76 76 75 74 76 74 74 74 75 75 75 75 75 76 73 72 71 70 69 68 68 73 72 73 72 78 85 83 72 73 70 72 72 75
88 92 81 78 77 77 76 76 77 76 76 75 74 75 73 74 74 74 74 74 74 74 74 72 72 70 71 68 72 72 72 74 77 78 82 84 84 70 74 70 68 72 71
93 88 79 82 78 78 76 75 76 76 74 74 75 73 73 74 73 74 72 72 72 74 73 71 71 73 69 73 74 72 67 69 74 80 86 87 85 75 74 70 69 69 70
87 87 79 78 78 76 76 77 76 75 75 74 73 74 74 74 74 73 72 72 72 73 72 71 72 74 71 72 75 75 69 66 72 82 86 88 82 72 71 71 74 70 70
81 86 90 83 77 76 76 76 74 75 73 73 73 72 73 73 72 72 73 72 72 72 71 71 71 72 73 73 76 75 72 74 81 82 76 89 82 73 74 73 72 71 71
84 87 94 91 88 89 86 75 74 74 72 72 71 73 72 72 71 71 77 74 71 71 71 71 71 72 72 73 75 76 72 73 79 85 90 88 81 68 73 72 72 71 72
81 91 94 91 95 95 90 76 76 72 71 71 73 73 81 85 81 79 76 71 69 69 70 70 71 71 70 68 72 73 73 83 82 86 88 84 76 67 69 69 68 71 72
88 86 84 87 94 93 73 89 88 77 91 92 91 91 94 91 87 80 75 70 70 69 69 69 67 66 70 72 78 75 78 77 86 90 93 83 76 72 74 74 70 70 70
78 72 75 83 89 89 89 96 94 89 94 89 86 89 91 91 93 95 97 94 94 78 84 81 86 88 79 78 72 76 81 78 89 87 88 83 80 70 75 76 77 73 74
69 68 76 78 85 82 91 92 89 88 89 88 85 89 93 92 95 94 96 91 92 91 90 94 88 84 85 79 81 71 62 73 85 94 92 82 80 70 69 70 72 71 70
69 73 75 79 82 86 85 90 86 86 83 81 89 91 92 90 90 94 93 93 95 92 89 90 92 85 72 60 59 58 64 74 84 90 96 75 83 78 69 69 69 69 70
69 73 72 71 76 80 84 81 82 86 77 81 89 90 88 90 94 89 90 93 90 93 88 91 84 82 74 63 58 59 66 73 79 88 91 87 80 80 73 70 70 71 74
68 69 73 79 74 76 76 77 81 77 75 84 88 89 90 91 92 89 84 87 92 87 84 89 84 78 72 68 66 64 65 69 76 84 90 94 88 77 74 72 72 72 71
66 71 67 57 71 73 70 79 80 88 90 88 93 87 85 89 87 88 87 84 90 93 85 89 82 84 79 73 72 71 68 68 70 72 80 84 87 82 82 77 79 78 73
65 73 73 74 73 78 76 83 83 87 91 94 92 92 86 85 75 91 90 84 87 89 81 82 76 81 83 75 68 71 70 70 65 59 71 73 80 82 87 83 86 85 76
66 66 66 72 74 79 85 89 89 87 94 95 93 92 90 91 81 92 89 79 89 89 84 80 80 85 79 71 58 55 69 69 70 72 73 66 76 76 78 82 89 91 84
64 66 68 76 79 82 89 91 96 92 86 94 94 83 87 89 81 90 94 89 87 88 81 85 81 74 75 74 77 71 74 70 68 70 67 74 75 72 78 80 83 88 82
61 67 75 77 79 78 78 90 86 92 93 94 95 90 89 88 85 87 91 84 86 87 84 84 80 83 83 79 73 84 73 61 64 60 69 63 68 72 72 72 78 79 81
63 74 75 79 78 78 85 90 97 96 95 94 94 94 93 85 86 87 83 83 81 90 88 82 79 76 84 72 62 74 81 77 77 65 65 68 62 71 69 66 67 74 77
63 75 73 79 80 78 88 83 87 91 94 92 88 93 93 85 82 85 84 87 84 87 85 87 79 84 85 83 77 67 77 78 75 60 64 64 60 60 63 67 63 61 63
61 72 71 78 83 84 90 89 79 86 92 95 96 89 92 91 84 78 86 87 85 88 85 81 79 84 91 85 86 88 82 82 83 76 65 59 62 65 63 62 61 63 61
57 64 78 81 78 81 86 87 90 89 91 95 94 97 96 94 87 81 83 88 89 86 83 80 83 82 86 87 89 84 84 76 88 84 80 68 68 56 63 61 64 64 66
Wind_Speed
4 6 9 11 11 13 13 12 13 13 14 14 13 12 14 14 15 15 14 15 15 15 16 17 17 17 19 19 19 19 20 20 19 19 18 17 18 17 17 16 15 11 16
9 7 11 11 12 12 13 13 13 13 13 14 14 12 14 14 14 14 14 14 14 14 16 17 17 17 18 18 17 19 19 18 17 18 18 17 18 17 17 15 16 13 17
11 9 10 11 12 12 12 13 13 13 13 14 13 13 13 14 14 14 15 14 14 14 15 16 16 16 16 17 17 17 17 17 17 19 18 5 9 17 16 16 16 17 15
10 6 8 12 12 12 12 12 12 13 13 13 13 14 13 13 14 13 15 14 14 13 14 15 15 15 15 14 14 13 12 14 16 15 6 5 10 15 15 16 15 15 16
9 6 9 12 12 13 13 12 12 12 12 13 13 13 13 13 14 15 14 14 13 13 14 14 14 13 12 10 10 9 11 17 16 12 6 6 4 12 15 16 14 15 14
10 7 11 13 13 12 13 12 12 12 12 12 13 13 14 12 14 14 14 14 14 13 13 14 14 12 10 10 13 16 19 18 14 8 6 7 5 14 14 16 14 15 14
9 7 10 13 13 12 12 12 13 12 11 12 12 12 13 13 12 13 14 13 13 12 12 13 13 12 11 15 17 16 16 17 7 7 6 5 6 14 14 15 14 14 13
12 7 9 13 13 12 11 12 12 11 11 11 11 11 14 13 12 12 12 12 12 11 12 12 11 10 12 12 12 15 16 15 10 7 5 4 10 12 14 12 14 13 12
11 8 5 6 10 12 12 11 12 11 11 11 11 11 12 12 11 11 11 11 12 10 11 11 8 8 9 9 10 15 16 14 6 5 7 3 9 12 11 12 12 11 11
9 9 6 5 5 6 6 12 12 11 11 11 11 11 12 12 11 11 9 10 10 9 9 9 7 7 7 6 12 14 15 13 4 6 4 3 11 10 10 10 11 10 9
7 6 6 6 6 6 5 7 9 12 11 11 10 12 8 3 4 6 8 10 9 7 7 6 5 7 6 3 7 14 12 3 4 3 2 9 9 10 9 9 8 8 7
8 6 6 6 5 6 5 5 4 5 4 4 3 5 3 4 2 4 6 9 8 6 5 5 6 7 7 2 1 5 3 4 3 3 2 8 9 9 8 8 7 6 5
11 8 8 7 6 6 5 3 2 2 3 3 4 2 1 3 2 2 2 3 3 2 1 2 4 2 0 2 2 2 3 4 3 1 4 8 9 8 7 7 6 5 4
14 11 9 6 6 5 4 3 3 2 3 3 3 5 3 3 4 2 1 2 1 2 3 4 3 4 4 6 7 4 5 4 3 2 3 7 7 8 7 6 5 4 3
14 12 9 6 6 6 5 4 4 4 3 4 4 5 4 2 3 3 2 2 3 1 1 2 4 4 4 4 8 9 6 5 5 3 2 10 7 8 7 6 5 5 4
11 10 7 7 6 6 5 5 4 3 4 3 4 3 5 3 2 2 3 2 1 1 2 3 2 2 2 3 7 7 6 6 6 5 3 4 9 8 7 7 7 7 6
11 11 10 8 7 6 7 6 4 3 4 4 4 3 5 5 5 4 1 2 1 2 2 1 2 4 4 3 5 4 5 5 5 5 4 4 4 9 8 8 8 8 8
13 12 10 10 8 7 6 4 4 4 4 3 4 4 4 3 4 3 3 2 2 2 1 1 2 3 3 4 2 1 3 4 5 5 4 3 3 4 7 10 9 9 9
13 11 7 8 8 8 7 3 5 6 4 3 3 2 1 4 6 4 2 2 4 3 2 1 1 1 1 2 2 2 3 3 5 5 5 5 6 5 3 7 10 9 11
12 12 11 7 8 7 5 4 4 3 3 3 2 2 2 3 4 4 3 3 0 3 1 1 0 0 2 3 2 3 4 4 2 3 5 5 5 5 5 5 4 5 10
11 11 11 9 6 6 4 3 1 2 1 1 2 2 2 3 1 4 3 1 1 4 2 2 1 1 2 1 2 3 3 3 4 5 4 4 5 6 5 5 4 3 4
13 12 9 10 8 5 5 3 2 2 2 1 2 3 3 5 2 4 5 4 2 2 1 2 1 0 2 1 1 1 3 4 3 3 3 5 6 4 5 6 6 6 5
12 13 11 12 9 6 6 4 4 4 3 2 1 1 4 5 3 4 5 3 5 3 3 2 2 2 2 3 3 3 2 2 2 3 2 2 4 4 5 5 6 6 6
9 8 12 11 9 6 7 4 5 5 4 3 2 2 3 5 5 5 3 4 3 2 3 1 2 1 3 2 2 2 1 3 3 2 3 2 3 4 5 4 5 6 5
11 11 12 11 9 7 7 6 4 3 3 1 2 3 2 3 5 6 6 5 4 3 3 2 1 2 1 2 2 2 3 3 3 3 2 4 3 3 4 5 5 5 4
12 11 11 12 10 8 7 7 7 7 5 3 2 3 3 3 4 4 6 6 5 4 2 2 1 0 2 3 2 2 2 1 1 1 1 3 3 4 3 4 5 5 4
Wind_Direction
178 144 133 125 119 111 104 101 100 100 100 99 95 92 96 92 95 97 99 95 95 95 97 95 98 100 101 105 106 103 102 101 100 96 98 96 87 84 80 80 75 77 79
139 140 131 121 116 111 109 107 105 105 100 99 102 101 98 103 101 102 98 98 102 105 102 102 102 105 108 107 104 105 103 101 99 98 95 91 89 88 87 82 80 83 80
136 140 138 126 120 120 118 105 103 101 99 103 101 107 105 105 107 109 107 107 105 109 109 107 108 108 104 106 108 108 111 103 103 99 95 88 87 90 87 80 82 83 81
133 125 130 131 132 128 117 113 105 102 105 97 104 108 105 109 108 107 107 109 112 112 111 109 109 105 102 106 116 127 132 87 94 91 72 62 87 92 91 88 85 78 81
123 122 137 135 117 114 117 111 108 108 108 102 96 107 106 108 112 109 115 117 114 115 109 106 107 107 108 111 121 114 125 119 108 96 84 75 79 90 93 84 77 87 78
128 134 134 131 124 123 120 115 112 114 108 110 103 103 110 109 115 115 114 114 113 111 112 111 112 106 93 85 124 122 108 112 105 94 77 75 76 90 89 86 84 81 81
133 138 134 133 128 125 118 117 113 110 110 109 106 108 106 108 113 120 115 116 120 119 118 117 117 108 108 94 107 116 109 108 95 88 82 76 88 89 91 87 86 85 84
137 131 135 134 129 127 126 118 111 108 106 108 108 108 111 117 119 115 121 128 134 129 116 116 114 117 108 94 102 118 113 111 101 90 83 80 94 99 93 92 101 90 85
136 125 121 128 140 134 124 121 113 116 111 113 113 115 117 121 117 121 127 127 140 137 121 120 133 121 93 86 100 115 115 118 111 107 101 81 102 90 103 98 90 90 91
137 132 138 138 134 122 129 125 122 121 120 118 120 124 123 118 121 124 120 123 121 129 122 126 137 115 109 98 110 127 120 114 88 92 94 98 101 103 93 91 103 97 96
148 142 149 147 148 134 132 134 132 132 129 122 129 124 96 73 84 100 123 119 120 119 124 134 137 113 99 77 115 117 112 98 96 88 105 105 107 111 109 106 108 109 103
158 160 171 156 158 150 142 127 142 127 111 120 111 113 86 88 118 114 120 119 121 129 144 163 150 134 104 80 16 80 97 110 97 116 139 133 130 133 129 126 123 119 119
166 167 177 164 166 163 126 150 168 133 123 140 161 144 288 96 81 61 51 44 33 31 347 56 60 73 167 183 230 190 135 113 125 181 159 152 156 143 135 146 148 142 144
164 171 170 166 165 164 143 159 168 151 140 146 195 140 142 125 108 95 80 144 128 323 323 2 316 298 272 183 189 167 160 134 155 175 183 167 158 161 166 165 166 173 182
159 163 171 166 169 162 166 152 161 163 179 161 157 172 131 131 144 148 242 220 173 219 10 327 291 310 355 2 119 151 155 155 165 176 187 180 188 188 182 185 194 204 214
157 160 141 168 177 167 183 171 158 182 137 160 81 122 138 160 124 167 201 251 210 185 193 244 318 301 180 116 140 159 157 170 174 178 185 191 195 197 201 207 215 225 237
159 150 152 147 158 145 132 140 138 161 143 125 135 128 138 171 180 171 169 152 254 269 225 231 282 40 12 85 113 154 176 172 175 183 186 196 204 209 214 225 230 238 245
155 160 154 137 141 128 120 145 140 123 118 123 115 124 119 151 173 143 143 190 211 212 99 348 48 23 23 0 11 167 165 164 195 186 177 204 211 216 225 230 238 245 248
161 149 142 130 143 128 135 118 122 118 114 137 136 114 182 187 175 122 140 213 185 159 177 341 32 127 54 316 268 280 275 185 205 198 188 205 220 223 225 241 242 244 250
162 160 150 142 146 126 111 81 66 90 123 149 150 137 53 259 183 89 116 192 120 117 154 315 182 304 231 222 282 295 257 239 232 206 200 205 225 232 226 234 244 245 251
160 161 152 143 162 130 116 117 73 177 97 84 175 176 149 283 172 121 112 113 344 108 144 272 224 224 291 129 29 336 295 227 224 235 201 213 223 231 228 236 241 243 260
159 161 147 150 159 166 139 132 142 146 126 213 196 202 207 254 213 138 156 190 225 117 133 269 172 322 280 51 94 214 15 340 3 281 223 208 221 227 237 229 236 244 242
150 157 156 159 166 162 133 109 84 64 35 345 311 257 234 217 188 173 174 167 157 112 148 226 150 145 46 315 241 164 52 235 329 330 316 249 231 222 236 234 236 241 246
160 146 155 156 161 151 154 133 149 159 171 229 210 222 219 200 203 171 185 175 159 119 172 219 159 137 116 16 322 33 146 162 151 0 331 284 252 239 230 239 234 237 242
161 158 159 164 163 146 155 159 163 150 146 174 220 194 249 222 238 162 162 166 152 191 187 139 112 114 102 104 65 339 22 26 63 121 261 309 337 239 242 244 249 251 238
172 155 163 169 180 156 158 152 175 177 170 150 135 177 219 211 244 202 162 183 172 170 191 186 125 150 128 102 114 56 80 83 318 49 211 255 250 292 262 254 255 244 236